Location: Catstown
(52.4386°N, 7.2633°W)
Time: 02:09:09
(UTC+00:00)

SJ 16-02 - Pass Details

Date: 18 September 2020
Orbit: 606 x 616 km, 75.0° (Epoch: 30 October)

Event Time Altitude Azimuth Distance (km) Brightness Sun altitude
Rises 19:36:29 0° 218° (SW) 2,856 5.1 -9.9°
Reaches altitude 10° 19:38:46 10° 225° (SW) 1,956 4.3 -10.3°
Maximum altitude 19:42:59 47° 300° (WNW) 806 2.5 -10.9°
Drops below altitude 10° 19:47:15 10° 15° (NNE) 1,969 4.0 -11.5°
Sets 19:49:34 0° 21° (NNE) 2,878 4.8 -11.8°
